Location: Norwich
(42.5310°N, 75.5240°W)
Time: 03:47:31
(UTC-04:00)

Envisat - Pass Details

Date: 29 March 2019
Orbit: 764 x 766 km, 98.1° (Epoch: 17 October)

Event Time Altitude Azimuth Distance (km) Brightness Sun altitude
Rises 20:17:39 0° 189° (S) 3,214 6.2 -10.5°
Reaches altitude 10° 20:20:07 10° 198° (SSW) 2,293 5.5 -10.9°
Maximum altitude 20:24:43 35° 263° (W) 1,220 4.7 -11.7°
Drops below altitude 10° 20:29:22 10° 329° (NNW) 2,310 6.2 -12.5°
Sets 20:31:53 0° 339° (NNW) 3,241 6.8 -13.0°
